HRBE
1 37855U 11061F 18221.07644001 .00000407 00000-0 29209-4 0 9990
2 37855 101.7142 310.6608 0175956 285.6874 72.4987 15.04564914369603
ALMASAT-1
1 38078U 12006B 18221.69578235 .00023305 39094-5 19687-3 0 9991
2 38078 69.4290 68.3499 0228062 24.4529 17.9380 15.43716356348906
HORYU-2
1 38340U 12025D 18220.62777702 .00000121 00000-0 25804-4 0 9996
2 38340 98.3641 244.1416 0012537 48.9445 311.2845 14.75583005334849
RS-40
1 38735U 12041C 18221.17483527 .00000032 00000-0 15735-3 0 9994
2 38735 82.4735 63.5771 0016476 196.1068 163.9490 12.42577155273600
BEESAT-3
1 39134U 13015E 18221.65128793 .00000679 00000-0 41415-4 0 9996
2 39134 64.8644 313.9445 0006068 221.0033 139.0639 15.19304657293022
BEESAT-2
1 39136U 13015G 18221.75011202 .00000628 00000-0 42348-4 0 9995
2 39136 64.8707 330.6104 0016942 234.8634 125.0905 15.16252126292719
ZACUBE-1
1 39417U 13066B 18221.15093295 .00000114 00000-0 20918-4 0 9998
2 39417 97.5845 246.9531 0058575 343.2175 16.7099 14.80961660254632
TRITON-1
1 39427U 13066M 18220.93252433 .00000146 00000-0 30963-4 0 9991
2 39427 097.6442 213.3743 0115622 090.3620 271.0836 14.67695448252122
GOMX-1
1 39430U 13066Q 18221.86225819 .00000112 00000-0 29017-4 0 9997
2 39430 97.7017 194.8850 0151880 160.5814 200.1261 14.59106259250983
LO-74
1 39440U 13066AA 18221.57212232 .00000168 00000-0 30335-4 0 9997
2 39440 97.6006 233.6341 0081089 23.2406 337.2438 14.75701578253796
AO-73
1 39444U 13066AE 18221.86164438 .00000186 00000-0 29391-4 0 9997
2 39444 97.5852 249.2186 0057505 335.9877 23.8657 14.81750895253603
SPROUT
1 39770U 14029E 18221.75719695 .00000426 00000-0 53836-4 0 9996
2 39770 97.8787 322.3666 0009752 40.4997 319.6907 14.86921525228323
DUCHIFAT-1
1 40021U 14033M 18220.76358275 .00000183 00000-0 24673-4 0 9992
2 40021 97.9140 139.5754 0013393 12.0182 348.1352 14.90354041224786
NANOSATCBR1
1 40024U 14033Q 18220.76361014 .00000192 00000-0 26075-4 0 9998
2 40024 97.9071 137.7130 0012712 14.6592 345.4992 14.89611116224706
EO-79
1 40025U 14033R 18221.71565381 .00000207 00000-0 28162-4 0 9994
2 40025 97.9024 136.9998 0012943 15.7133 344.4483 14.88749759224750
DTUSAT-2
1 40030U 14033W 18221.69478143 .00000166 00000-0 23935-4 0 9993
2 40030 97.8969 135.6050 0012283 11.4735 348.6760 14.88355549224693
EO-80
1 40032U 14033Y 18221.75495511 .00000164 00000-0 23818-4 0 9998
2 40032 97.8975 135.6673 0012238 11.9320 348.2184 14.88293422224695
ANTELSAT
1 40034U 14033AA 18221.69894892 .00000134 00000-0 27497-4 0 9992
2 40034 97.8038 96.3583 0059669 26.9716 333.4573 14.73951655222570
VELOX-1
1 40057U 14034E 18221.74394877 .00000176 00000-0 32358-4 0 9990
2 40057 98.2090 333.7320 0011804 150.8266 209.3609 14.77463702221554
DAURIA DX 1
1 40071U 14037C 18221.71994959 .00000059 00000-0 14987-4 0 9991
2 40071 98.3829 355.4915 0009174 143.3935 216.7905 14.81177865220927
UKUBE-1
1 40074U 14037F 18221.82917979 .00000162 00000-0 26694-4 0 9996
2 40074 98.3943 1.8205 0005122 132.7331 227.4325 14.83837270221259
HODOYOSHI-1
1 40299U 14070B 18221.74451848 .00000443 00000-0 21788-4 0 9992
2 40299 97.3762 302.5687 0014692 65.7616 32.7364 15.22971727208631
CHUBUSAT-1
1 40300U 14070C 18221.69727088 .00000425 00000-0 21775-4 0 9997
2 40300 97.3610 298.2443 0021667 76.4293 74.5237 15.21649283208414
QSAT-EOS
1 40301U 14070D 18221.73852493 .00001102 00000-0 46709-4 0 9999
2 40301 97.3572 299.8016 0027981 65.6490 33.7442 15.24921477208583
FIREBIRD FU3
1 40377U 15003B 18220.94346829 .00001990 00000-0 83993-4 0 9993
2 40377 99.0822 133.1416 0131802 55.4594 305.8994 15.17404950194322
FIREBIRD FU4
1 40378U 15003C 18221.78924230 .00002027 00000-0 85366-4 0 9993
2 40378 99.0823 134.2152 0131971 52.5491 308.7657 15.17417206194454
GRIFEX
1 40379U 15003D 18221.20050190 .00001414 00000-0 65090-4 0 9997
2 40379 99.0843 129.3882 0139118 67.8228 293.7694 15.14470376194122
NO-84
1 40654U 15025D 18221.23031493 .00002191 00000-0 42629-4 0 03759
2 40654 054.9906 156.5049 0151678 243.8458 114.6904 15.41472168064022
NO-83
1 40655U 15025E 18221.10892626 .00007995 00000-0 85513-4 0 04341
2 40655 054.9749 093.7966 0098669 282.6702 076.3353 15.59176604064534
DEORBITSAIL
1 40719U 15032E 18221.18088265 .00000274 00000-0 46709-4 0 9997
2 40719 97.9389 113.8203 0014998 235.2434 124.7365 14.76482207165999
NUDT-PHONESAT
1 40900U 15049B 18221.84158675 .00001395 00000-0 64967-4 0 9994
2 40900 97.4412 229.4806 0012800 194.1311 165.9569 15.21520447160070
XW-2A
1 40903U 15049E 18221.76212468 .00001320 00000-0 34386-4 0 9999
2 40903 97.3805 257.1442 0013728 189.8361 170.2618 15.40684084162051
XW-2C
1 40906U 15049H 18221.80941154 .00000404 00000-0 24943-4 0 9998
2 40906 97.4609 224.3225 0014383 198.0343 162.0381 15.15260643159619
XW-2D
1 40907U 15049J 18221.82245633 .00000438 00000-0 26653-4 0 9997
2 40907 97.4583 224.0264 0013812 195.3596 164.7219 15.15417070159625
LILACSAT-2
1 40908U 15049K 18221.82845025 .00000237 00000-0 16794-4 0 9991
2 40908 97.4697 223.3209 0015414 198.5998 161.4672 15.13553932159481
XW-2F
1 40910U 15049M 18221.72822216 .00000711 00000-0 39687-4 0 9993
2 40910 97.4582 225.3465 0014639 190.9772 169.1144 15.16643507159577
XW-2B
1 40911U 15049N 18221.84197296 .00000443 00000-0 26946-4 0 9996
2 40911 97.4618 224.6031 0013720 195.9103 164.1700 15.15359593159528
DCBB
1 40912U 15049P 18220.98045929 .00000715 00000-0 37475-4 0 9997
2 40912 97.4512 227.5651 0014974 180.5070 209.7289 15.18872749159688
TW-1C
1 40926U 15051B 18221.74443596 .00006140 00000-0 11170-3 0 9993
2 40926 97.1802 263.8508 0011470 81.5940 12.5733 15.49814710161607
TW-1A
1 40928U 15051D 18221.72335078 .00002031 00000-0 54642-4 0 9995
2 40928 97.1824 254.6495 0013314 122.8939 330.9944 15.38952629161018
IO-86
1 40931U 15052B 18221.08083852 .00000657 00000-0 25140-5 0 9993
2 40931 5.9976 132.8593 0013157 35.4112 324.7617 14.76580933154836
LQSat
1 40958U 15057A 18221.76065117 .00000006 00000-0 86819-5 0 9994
2 40958 97.9376 293.7155 0018466 161.0974 199.0921 14.73041374152737
AO-85
1 40967U 15058D 18221.60009697 -.00000036 00000-0 14841-4 0 04140
2 40967 064.7759 029.1121 0211376 297.4598 060.5154 14.75752899061539
ATHENOXAT-1
1 41168U 15077C 18221.61720286 .00001494 00000-0 44708-4 0 9991
2 41168 14.9876 349.2091 0011799 61.5851 317.3759 15.12887032146483
ChubuSat-2
1 41338U 16012B 18221.68262240 .00000269 00000-0 14205-4 0 9996
2 41338 31.0042 333.7628 0013919 243.6459 116.2748 15.00006472135877
ChubuSat-3
1 41339U 16012C 18221.68972968 .00000216 00000-0 99889-5 0 9996
2 41339 31.0126 332.2359 0013643 251.7383 108.1768 15.00191903135861
Horyu-4
1 41340U 16012D 18221.65270065 .00000377 00000-0 22010-4 0 9993
2 41340 31.0060 326.7246 0014156 264.1252 95.7770 15.01026771135939
OUFTI-1
1 41458U 16025C 18221.70145280 .00000968 00000-0 54691-4 0 9999
2 41458 98.1327 287.4039 0168350 328.8747 30.2583 15.04837629125485
e-st@r-II
1 41459U 16025D 18221.71816479 .00000871 00000-0 49894-4 0 9998
2 41459 98.1329 287.2403 0169534 329.3228 29.8167 15.04554097125472
AAUSAT4
1 41460U 16025E 18221.64451219 .00001107 00000-0 61388-4 0 9994
2 41460 98.1261 287.7517 0160482 325.1230 33.9588 15.06049961125531
LO-87
1 41557U 16033B 18221.80908126 .00000776 00000-0 31316-4 0 9991
2 41557 97.4359 305.9090 0013211 334.8619 25.1976 15.27787730122348
NuSat2
1 41558U 16033C 18221.79813158 .00000965 00000-0 37729-4 0 9994
2 41558 97.4381 306.0466 0012292 332.9740 27.0858 15.28279950122335
